When you browse on this site, cookies collect data to enhance your experience and personalize the content and advertising you see.
Visit our Privacy Policy to learn more. By continuing to use the site, you agree to this use of cookies and data.
  • In Schweiz
  • Länderverzeichnis
  • Für 7 Tage
  • Wassertemperatur
  • Wetterkarte
  • Widgets
  • user-avatar
    Anmelden

    Stündliche Wetter Krupec

    Heute, 3 Juni, Mittwoch

    Zeit Temperatur Niederschläge Wind Luftdruck Luftfeuchtigkeit
    00:00 +13°C° 2.6 mm 2 m/S 741 mmHg 97%
    01:00 +13°C° 2.6 mm 2 m/S 741 mmHg 97%
    02:00 +13°C° 0 mm 1 m/S 741 mmHg 98%
    03:00 +13°C° 1.4 mm 1 m/S 741 mmHg 98%
    04:00 +13°C° 1.4 mm 1 m/S 741 mmHg 98%
    05:00 +13°C° 1.4 mm 2 m/S 740 mmHg 98%
    06:00 +13°C° 0.6 mm 2 m/S 740 mmHg 97%
    07:00 +13°C° 0.6 mm 1 m/S 740 mmHg 96%
    08:00 +13°C° 0 mm 1 m/S 741 mmHg 95%
    09:00 +14°C° 0 mm 1 m/S 740 mmHg 93%
    10:00 +14°C° 0 mm 1 m/S 740 mmHg 91%
    11:00 +15°C° 0 mm 1 m/S 740 mmHg 90%
    12:00 +16°C° 0.1 mm 2 m/S 740 mmHg 88%
    13:00 +17°C° 0.1 mm 2 m/S 740 mmHg 85%
    14:00 +18°C° 0.1 mm 2 m/S 740 mmHg 83%
    15:00 +17°C° 0.6 mm 2 m/S 739 mmHg 85%
    16:00 +17°C° 0.6 mm 2 m/S 739 mmHg 87%
    17:00 +17°C° 0.6 mm 2 m/S 738 mmHg 89%
    18:00 +16°C° 1 mm 2 m/S 738 mmHg 91%
    19:00 +15°C° 1 mm 2 m/S 738 mmHg 93%
    20:00 +14°C° 1 mm 2 m/S 738 mmHg 95%
    21:00 +14°C° 0.3 mm 2 m/S 737 mmHg 96%
    22:00 +13°C° 0.3 mm 2 m/S 736 mmHg 96%
    23:00 +13°C° 0.3 mm 1 m/S 736 mmHg 97%

    Morgen, 4 Juni, Donnerstag

    Zeit Temperatur Niederschläge Wind Luftdruck Luftfeuchtigkeit
    00:00 +12°C° 0 mm 2 m/S 736 mmHg 97%
    01:00 +12°C° 0 mm 2 m/S 736 mmHg 97%
    02:00 +10°C° 0 mm 2 m/S 736 mmHg 98%
    03:00 +12°C° 0 mm 2 m/S 736 mmHg 97%
    04:00 +12°C° 0 mm 2 m/S 736 mmHg 97%
    05:00 +12°C° 0 mm 3 m/S 736 mmHg 97%
    06:00 +13°C° 0 mm 3 m/S 737 mmHg 94%
    07:00 +14°C° 0 mm 3 m/S 737 mmHg 90%
    08:00 +16°C° 0 mm 3 m/S 737 mmHg 87%
    09:00 +17°C° 0.7 mm 3 m/S 737 mmHg 83%
    10:00 +18°C° 0.7 mm 2 m/S 737 mmHg 78%
    11:00 +19°C° 0.7 mm 2 m/S 737 mmHg 74%
    12:00 +18°C° 2.1 mm 3 m/S 738 mmHg 76%
    13:00 +18°C° 2.1 mm 3 m/S 738 mmHg 78%
    14:00 +18°C° 2.1 mm 3 m/S 738 mmHg 80%
    15:00 +17°C° 0.6 mm 4 m/S 738 mmHg 82%
    16:00 +16°C° 0.6 mm 5 m/S 738 mmHg 84%
    17:00 +15°C° 0.6 mm 5 m/S 738 mmHg 86%
    18:00 +14°C° 0 mm 4 m/S 738 mmHg 89%
    19:00 +13°C° 0 mm 4 m/S 739 mmHg 91%
    20:00 +12°C° 0 mm 3 m/S 739 mmHg 93%
    21:00 +12°C° 0 mm 3 m/S 739 mmHg 94%
    22:00 +11°C° 0 mm 3 m/S 740 mmHg 94%
    23:00 +11°C° 0 mm 3 m/S 740 mmHg 95%

    übermorgen, 5 Juni, Freitag

    Zeit Temperatur Niederschläge Wind Luftdruck Luftfeuchtigkeit
    00:00 +11°C° 0 mm 3 m/S 740 mmHg 95%
    01:00 +11°C° 0 mm 4 m/S 740 mmHg 95%
    02:00 +11°C° 0 mm 4 m/S 740 mmHg 95%
    03:00 +11°C° 0 mm 4 m/S 740 mmHg 94%
    04:00 +11°C° 0 mm 4 m/S 740 mmHg 94%
    05:00 +12°C° 0 mm 5 m/S 740 mmHg 93%
    06:00 +13°C° 0.2 mm 5 m/S 741 mmHg 91%
    07:00 +14°C° 0.2 mm 5 m/S 741 mmHg 88%
    08:00 +15°C° 0.2 mm 6 m/S 741 mmHg 85%
    09:00 +15°C° 0.5 mm 6 m/S 741 mmHg 84%
    10:00 +16°C° 0.5 mm 7 m/S 741 mmHg 83%
    11:00 +16°C° 0.5 mm 7 m/S 741 mmHg 82%
    12:00 +16°C° 0.8 mm 7 m/S 741 mmHg 84%
    13:00 +15°C° 0.8 mm 6 m/S 741 mmHg 85%
    14:00 +14°C° 0.8 mm 6 m/S 741 mmHg 87%
    15:00 +15°C° 0.4 mm 5 m/S 741 mmHg 87%
    16:00 +15°C° 0.4 mm 5 m/S 741 mmHg 87%
    17:00 +16°C° 0.4 mm 5 m/S 741 mmHg 87%
    18:00 +15°C° 0.5 mm 5 m/S 741 mmHg 90%
    19:00 +14°C° 0.5 mm 4 m/S 741 mmHg 92%
    20:00 +14°C° 0.5 mm 4 m/S 741 mmHg 95%
    21:00 +13°C° 0.3 mm 4 m/S 741 mmHg 95%
    22:00 +13°C° 0.3 mm 4 m/S 741 mmHg 96%
    23:00 +12°C° 0.3 mm 4 m/S 741 mmHg 97%

    6 Juni, Samstag

    Zeit Temperatur Niederschläge Wind Luftdruck Luftfeuchtigkeit
    00:00 +13°C° 0.1 mm 4 m/S 742 mmHg 97%
    01:00 +13°C° 0.1 mm 3 m/S 742 mmHg 97%
    02:00 +14°C° 0.1 mm 3 m/S 742 mmHg 97%
    03:00 +14°C° 0 mm 3 m/S 742 mmHg 97%
    04:00 +14°C° 0 mm 3 m/S 742 mmHg 97%
    05:00 +16°C° 0 mm 3 m/S 742 mmHg 97%
    06:00 +16°C° 0.1 mm 3 m/S 742 mmHg 95%
    07:00 +17°C° 0.1 mm 3 m/S 742 mmHg 94%
    08:00 +18°C° 0.1 mm 3 m/S 743 mmHg 92%
    09:00 +20°C° 0.1 mm 4 m/S 743 mmHg 87%
    10:00 +21°C° 0.1 mm 4 m/S 743 mmHg 81%
    11:00 +23°C° 0.1 mm 4 m/S 743 mmHg 75%
    12:00 +23°C° 1.2 mm 4 m/S 743 mmHg 76%
    13:00 +23°C° 1.2 mm 5 m/S 743 mmHg 78%
    14:00 +25°C° 1.2 mm 5 m/S 743 mmHg 79%
    15:00 +23°C° 0.7 mm 5 m/S 743 mmHg 81%
    16:00 +23°C° 0.7 mm 4 m/S 743 mmHg 82%
    17:00 +23°C° 0.7 mm 4 m/S 743 mmHg 84%
    18:00 +22°C° 0.9 mm 4 m/S 744 mmHg 86%
    19:00 +21°C° 0.9 mm 5 m/S 744 mmHg 88%
    20:00 +20°C° 0.9 mm 5 m/S 744 mmHg 90%
    21:00 +19°C° 0.6 mm 4 m/S 744 mmHg 92%
    22:00 +19°C° 0.6 mm 3 m/S 745 mmHg 93%
    23:00 +18°C° 0.6 mm 2 m/S 745 mmHg 95%

    7 Juni, Sonntag

    Zeit Temperatur Niederschläge Wind Luftdruck Luftfeuchtigkeit
    00:00 +18°C° 0.1 mm 2 m/S 745 mmHg 96%
    01:00 +18°C° 0.1 mm 3 m/S 746 mmHg 96%
    02:00 +17°C° 0.1 mm 3 m/S 746 mmHg 97%
    03:00 +17°C° 0 mm 3 m/S 746 mmHg 97%
    04:00 +17°C° 0 mm 3 m/S 746 mmHg 97%
    05:00 +17°C° 0 mm 2 m/S 747 mmHg 97%
    06:00 +19°C° 0 mm 2 m/S 747 mmHg 93%
    07:00 +20°C° 0 mm 2 m/S 748 mmHg 90%
    08:00 +21°C° 0 mm 2 m/S 748 mmHg 86%
    09:00 +23°C° 0.2 mm 2 m/S 748 mmHg 81%
    10:00 +25°C° 0.2 mm 2 m/S 748 mmHg 75%
    11:00 +26°C° 0.2 mm 2 m/S 749 mmHg 69%
    12:00 +26°C° 0.6 mm 2 m/S 749 mmHg 70%
    13:00 +26°C° 0.6 mm 3 m/S 748 mmHg 71%
    14:00 +26°C° 0.6 mm 3 m/S 748 mmHg 71%
    15:00 +26°C° 0.2 mm 2 m/S 748 mmHg 74%
    16:00 +26°C° 0.2 mm 2 m/S 748 mmHg 76%
    17:00 +26°C° 0.2 mm 2 m/S 748 mmHg 78%
    18:00 +24°C° 0.1 mm 2 m/S 748 mmHg 82%
    19:00 +23°C° 0.1 mm 2 m/S 748 mmHg 86%
    20:00 +20°C° 0.1 mm 2 m/S 749 mmHg 89%
    21:00 +19°C° 0.1 mm 2 m/S 749 mmHg 90%
    22:00 +19°C° 0.1 mm 2 m/S 749 mmHg 92%
    23:00 +18°C° 0.1 mm 2 m/S 749 mmHg 93%

    8 Juni, Montag

    Zeit Temperatur Niederschläge Wind Luftdruck Luftfeuchtigkeit
    00:00 +18°C° 0 mm 2 m/S 749 mmHg 93%
    01:00 +17°C° 0 mm 2 m/S 749 mmHg 93%
    02:00 +17°C° 0 mm 2 m/S 749 mmHg 93%
    03:00 +17°C° 0 mm 2 m/S 749 mmHg 93%
    04:00 +18°C° 0 mm 2 m/S 749 mmHg 93%
    05:00 +18°C° 0 mm 2 m/S 749 mmHg 93%
    06:00 +20°C° 0 mm 2 m/S 749 mmHg 89%
    07:00 +21°C° 0 mm 2 m/S 749 mmHg 85%
    08:00 +24°C° 0 mm 3 m/S 749 mmHg 82%
    09:00 +25°C° 0.1 mm 3 m/S 749 mmHg 77%
    10:00 +26°C° 0.1 mm 3 m/S 750 mmHg 73%
    11:00 +27°C° 0.1 mm 4 m/S 750 mmHg 69%
    12:00 +27°C° 0.2 mm 4 m/S 749 mmHg 68%
    13:00 +27°C° 0.2 mm 4 m/S 749 mmHg 67%
    14:00 +28°C° 0.2 mm 4 m/S 749 mmHg 66%
    15:00 +27°C° 0.1 mm 4 m/S 749 mmHg 70%
    16:00 +27°C° 0.1 mm 3 m/S 749 mmHg 74%
    17:00 +27°C° 0.1 mm 3 m/S 749 mmHg 79%
    18:00 +25°C° 0 mm 2 m/S 749 mmHg 82%
    19:00 +24°C° 0 mm 2 m/S 749 mmHg 86%
    20:00 +21°C° 0 mm 2 m/S 749 mmHg 90%
    21:00 +21°C° 0 mm 2 m/S 749 mmHg 91%
    22:00 +20°C° 0 mm 2 m/S 749 mmHg 91%
    23:00 +19°C° 0 mm 2 m/S 749 mmHg 92%
    Mehr zeigen